STARLINK-35142, 65434

Orbit data source: Space-Track

STARLINK-35142, 65434 is a payload satellite owned by SpaceX/Seattle (US) in SSO that was launched on Wed, 03 Sep 2025 UTC via an FALCON 9 launch vehicle from the Air Force Western Test Range (AFWTR). Payload-class satellites include a variety of spacecraft equipped with specific instruments for various scientific and technological missions. These include communications satellites like Starlink; space stations such as the ISS; scientific satellites like the Hubble; Earth observation satellites from companies like Planet Labs, Umbra, and HawkEye 360; GPS; miniature CubeSats for education and research; and military/defense satellites.

Loading next visibility...
Identifier
65434, 2025-194A
Orbit
SSO
Country
Flag of USUS
Related business
Manufacturer
SpaceX/Seattle
Mission
Operational Commercial Communications
Bus & Motor
STARLINK V2MO, Unknown motor
Mass
575 kg wet, ~530 kg dry
Launch date (UTC)
2025-09-03 (10 months ago)
Launch vehicle
FALCON 9
Launch site
Air Force Western Test Range (AFWTR)
Object type
Payload
Rocket body
Debris
Shape & HBR
Box + 2 Pan, 17.7 m
Radar Cross Section
36.964 m², Large (>1 m²)

Expand to show TLE details & history
Last TLE update: 1 day ago

TLE from 1 day ago
0 STARLINK-35142
1 65434U 25194A   26170.56911913  .00003148  00000-0  22197-3 0  9994
2 65434  97.3404  23.6619 0002405  88.4881 271.6622 15.05659618 44972
Epoch: 2026-06-19T13:39Z
TLE epoch observation values (Epoch: 2026-06-19T13:39:31.892Z)
Latitude
-0.00004°
Longitude
-89.01719°
Altitude
552.506 km
Speed
7.586 km/s
True Right ascension
01h 34m 38s
True Declination
0° 00' 00"
Sunlit
Object was in daylight at epoch
Visualization orbit readout
Latitude
Unknown
Longitude
Unknown
Altitude
Unknown
Speed
Unknown
Apparent Right ascension
Unknown
Apparent Declination
Unknown
Sunlit
N/A
Visualization observer readout
Local Sidereal Time
08:41:46
Azimuth
Unknown
Elevation
Unknown
Doppler factor
Unknown
Orbital elements
Apogee altitude
548.129 km
Perigee altitude
544.798 km
Semi-major axis
6,924.601 km
Eccentricity
0.00024
Inclination
97.3404°
RAAN
23.6619°
Arg. of periapsis
88.4881°
True anomaly
271.63465°
Mean anomaly
271.6622°
Eccentric anomaly
271.64843°
Mean motion
3.76661 °/min
Orbital period
95.58 mins
BSTAR
0.00022197
Loading maneuver chart data...
Computing Atmospheric mass density...
Loading historical data...
Loading historical data...
Loading historical data...
Loading historical data...
Loading historical data...
Loading historical data...
Loading historical data...

Documentation

Showing up to 5 results
|